Time,TemperatureF,DewpointF,PressureIn,WindDirection,WindDirectionDegrees,WindSpeedMPH,WindSpeedGustMPH,Humidity,HourlyPrecipIn,Conditions,Clouds,dailyrainin,SolarRadiationWatts/m^2,SoftwareType,DateUTC
2013-08-07 00:00:00,49.0,48.0,-100.00,SE,142,1.0,2.0,96,-99.99,,,0.01,0.300000,,2013-08-07 06:00:00,
2013-08-07 01:00:00,47.0,-99.9,-100.00,North,-999,-999.0,-999.0,-999,-99.99,,,0.01,,,2013-08-07 07:00:00,
2013-08-07 01:53:00,47.0,-99.9,-100.00,North,-999,-999.0,-999.0,-999,-99.99,,,0.01,,,2013-08-07 07:53:00,
2013-08-07 02:00:00,48.0,47.0,-100.00,SSE,156,2.0,3.0,96,-99.99,,,0.01,0.300000,,2013-08-07 08:00:00,
2013-08-07 02:52:00,48.0,47.0,-100.00,SSE,156,2.0,3.0,96,-99.99,,,0.01,0.300000,,2013-08-07 08:52:00,
2013-08-07 03:00:00,48.0,46.0,-100.00,SSE,156,2.0,3.0,95,-99.99,,,0.01,0.000000,,2013-08-07 09:00:00,
2013-08-07 03:54:00,48.0,46.0,-100.00,SSE,156,2.0,3.0,95,-99.99,,,0.01,0.000000,,2013-08-07 09:54:00,
2013-08-07 04:00:00,47.0,46.0,-100.00,SSE,155,3.0,3.0,95,-99.99,,,0.01,0.000000,,2013-08-07 10:00:00,
2013-08-07 04:52:00,47.0,46.0,-100.00,SSE,155,3.0,3.0,95,-99.99,,,0.01,0.000000,,2013-08-07 10:52:00,
2013-08-07 05:00:00,50.0,47.0,-100.00,SE,142,2.0,3.0,88,-99.99,,,0.01,0.000000,,2013-08-07 11:00:00,
2013-08-07 05:53:00,50.0,47.0,-100.00,SE,142,2.0,3.0,88,-99.99,,,0.01,0.000000,,2013-08-07 11:53:00,
2013-08-07 06:00:00,52.0,47.0,-100.00,SE,144,2.0,4.0,84,-99.99,,,0.01,0.000000,,2013-08-07 12:00:00,
2013-08-07 06:52:00,52.0,47.0,-100.00,SE,144,2.0,4.0,84,-99.99,,,0.01,0.000000,,2013-08-07 12:52:00,
2013-08-07 07:00:00,50.0,45.0,-100.00,SSE,157,1.0,3.0,83,-99.99,,,0.01,9.500000,,2013-08-07 13:00:00,
2013-08-07 08:00:00,54.0,49.0,-100.00,SE,145,1.0,3.0,84,-99.99,,,0.01,47.000000,,2013-08-07 14:00:00,
2013-08-07 08:52:00,54.0,49.0,-100.00,SE,145,1.0,3.0,84,-99.99,,,0.01,47.000000,,2013-08-07 14:52:00,
2013-08-07 09:00:00,57.0,50.0,-100.00,SE,129,0.0,2.0,75,-99.99,,,0.01,62.299999,,2013-08-07 15:00:00,
2013-08-07 09:53:00,57.0,50.0,-100.00,SE,129,0.0,2.0,75,-99.99,,,0.01,62.299999,,2013-08-07 15:53:00,
2013-08-07 10:00:00,61.0,49.0,-100.00,ENE,61,1.0,4.0,66,-99.99,,,0.01,80.599998,,2013-08-07 16:00:00,
2013-08-07 10:53:00,61.0,49.0,-100.00,ENE,61,1.0,4.0,66,-99.99,,,0.01,80.599998,,2013-08-07 16:53:00,
2013-08-07 11:00:00,60.0,46.0,-100.00,NE,39,1.0,3.0,59,-99.99,,,0.01,151.399994,,2013-08-07 17:00:00,
2013-08-07 11:52:00,60.0,46.0,-100.00,NE,39,1.0,3.0,59,-99.99,,,0.01,151.399994,,2013-08-07 17:52:00,
2013-08-07 12:00:00,57.0,45.0,-100.00,East,89,0.0,2.0,64,-99.99,,,0.01,60.099998,,2013-08-07 18:00:00,
2013-08-07 13:00:00,61.0,50.0,-100.00,NE,40,1.0,4.0,67,-99.99,,,0.01,536.599976,,2013-08-07 19:00:00,
2013-08-07 13:52:00,61.0,50.0,-100.00,NE,40,1.0,4.0,67,-99.99,,,0.01,536.599976,,2013-08-07 19:52:00,
2013-08-07 14:00:00,53.0,41.0,-100.00,NW,307,1.0,3.0,64,-99.99,,,0.01,193.500000,,2013-08-07 20:00:00,
2013-08-07 14:52:00,53.0,41.0,-100.00,NW,307,1.0,3.0,64,-99.99,,,0.01,193.500000,,2013-08-07 20:52:00,
2013-08-07 15:00:00,51.0,50.0,-100.00,NNE,31,1.0,3.0,95,-99.99,,,0.02,31.100000,,2013-08-07 21:00:00,
2013-08-07 15:52:00,51.0,50.0,-100.00,NNE,31,1.0,3.0,95,-99.99,,,0.02,31.100000,,2013-08-07 21:52:00,
2013-08-07 16:00:00,58.0,56.0,-100.00,NE,37,1.0,4.0,93,-99.99,,,0.02,612.599976,,2013-08-07 22:00:00,
2013-08-07 17:00:00,53.0,48.0,-100.00,ENE,75,1.0,3.0,85,-99.99,,,0.03,133.399994,,2013-08-07 23:00:00,
2013-08-07 18:00:00,54.0,53.0,-100.00,SSE,150,1.0,3.0,97,-99.99,,,0.04,58.900002,,2013-08-08 00:00:00,
2013-08-07 19:00:00,53.0,53.0,-100.00,NNE,26,0.0,3.0,97,-99.99,,,0.03,58.599998,,2013-08-08 01:00:00,
2013-08-07 19:43:00,53.0,53.0,-100.00,NNE,26,0.0,3.0,97,-99.99,,,0.03,58.599998,,2013-08-08 01:43:00,
2013-08-07 20:00:00,52.0,50.0,-100.00,NNE,23,1.0,3.0,94,-99.99,,,0.03,43.700001,,2013-08-08 02:00:00,
2013-08-07 20:43:00,52.0,50.0,-100.00,NNE,23,1.0,3.0,94,-99.99,,,0.03,43.700001,,2013-08-08 02:43:00,
2013-08-07 21:00:00,50.0,49.0,-100.00,NE,39,0.0,3.0,97,-99.99,,,0.02,0.300000,,2013-08-08 03:00:00,
2013-08-07 22:00:00,49.0,49.0,-100.00,NNE,25,0.0,1.0,97,-99.99,,,0.03,0.000000,,2013-08-08 04:00:00,
2013-08-07 23:00:00,49.0,48.0,-100.00,NNE,23,1.0,2.0,97,-99.99,,,0.02,0.000000,,2013-08-08 05:00:00,
2013-08-07 23:43:00,49.0,48.0,-100.00,NNE,23,1.0,2.0,97,-99.99,,,0.02,0.000000,,2013-08-08 05:43:00,